CW6777 Weather Reports


Display with metric or nautical units.
time (UTC)temp
F
wind
direction
speed
MPH
gust
MPH
rain 1hr
in
rain 24hr
in
rain mn
in
humidity
%
barometer
mb
20260503201011 58 5 5.0 17.0 0.00 0.00 0.00 40 1010.1
20260503200507 58 45 2.0 12.0 0.00 0.00 0.00 41 1010.2
20260503200022 58 346 4.0 12.0 0.00 0.00 0.00 41 1010.2
20260503195508 57 24 2.0 12.0 0.00 0.00 0.00 40 1010.2
20260503195012 57 82 4.0 16.0 0.00 0.00 0.00 38 1010.2
20260503194527 57 355 5.0 16.0 0.00 0.00 0.00 38 1010.3
20260503194010 58 40 4.0 15.0 0.00 0.00 0.00 38 1010.4
20260503193506 58 19 4.0 15.0 0.00 0.00 0.00 37 1010.5
20260503193014 58 344 3.0 15.0 0.00 0.00 0.00 41 1010.6
20260503192506 58 114 2.0 12.0 0.00 0.00 0.00 44 1010.6
20260503192015 58 89 5.0 15.0 0.00 0.00 0.00 42 1010.8
20260503191521 57 284 6.0 15.0 0.00 0.00 0.00 39 1010.9
20260503191010 56 58 4.0 12.0 0.00 0.00 0.00 41 1010.8
20260503190507 56 342 3.0 12.0 0.00 0.00 0.00 39 1010.9
20260503190021 57 14 4.0 19.0 0.00 0.00 0.00 39 1010.9
20260503185506 57 57 7.0 19.0 0.00 0.00 0.00 41 1011.0
20260503185006 57 38 9.0 19.0 0.00 0.00 0.00 39 1011.0
20260503184522 56 102 3.0 14.0 0.00 0.00 0.00 44 1011.1
20260503184007 56 16 5.0 14.0 0.00 0.00 0.00 38 1011.0
20260503183517 57 18 3.0 10.0 0.00 0.00 0.00 42 1011.1
20260503183030 57 111 3.0 10.0 0.00 0.00 0.00 42 1011.2
20260503182509 56 98 3.0 17.0 0.00 0.00 0.00 42 1011.2
20260503182011 55 12 7.0 17.0 0.00 0.00 0.00 39 1011.2
20260503181528 55 352 1.0 12.0 0.00 0.00 0.00 42 1011.2
20260503181004 55 175 3.0 12.0 0.00 0.00 0.00 41 1011.2
20260503180504 55 34 4.0 17.0 0.00 0.00 0.00 42 1011.2
20260503180004 55 348 6.0 17.0 0.00 0.00 0.00 40 1011.3
20260503175504 55 9 4.0 16.0 0.00 0.00 0.00 40 1011.3
20260503175007 55 324 4.0 16.0 0.00 0.00 0.00 44 1011.3
20260503174507 55 50 5.0 16.0 0.00 0.00 0.00 44 1011.5
20260503174002 55 326 5.0 15.0 0.00 0.00 0.00 43 1011.5
20260503173502 54 40 3.0 14.0 0.00 0.00 0.00 42 1011.5
20260503173024 54 18 5.0 14.0 0.00 0.00 0.00 39 1011.5
20260503172502 55 5 3.0 12.0 0.00 0.00 0.00 41 1011.5
20260503172003 55 179 2.0 15.0 0.00 0.00 0.00 43 1011.5
20260503171512 55 20 4.0 15.0 0.00 0.00 0.00 42 1011.5
20260503171006 54 345 4.0 15.0 0.00 0.00 0.00 47 1011.5
20260503170503 54 10 3.0 21.0 0.00 0.00 0.00 43 1011.6
20260503151006 50 67 6.0 16.0 0.00 0.00 0.00 49 1012.7
20260503150512 49 97 1.0 19.0 0.00 0.00 0.00 55 1012.7
20260503131007 45 49 4.0 11.0 0.00 0.00 0.00 59 1013.2
20260503130509 45 19 3.0 10.0 0.00 0.00 0.00 61 1013.2
20260503110513 34 35 0.0 8.0 0.00 0.00 0.00 76 1012.6
20260503090505 36 123 2.0 10.0 0.00 0.01 0.00 71 1011.6
20260503081513 36 13 1.0 8.0 0.00 0.01 0.00 72 1011.5
20260503081007 36 122 0.0 1.0 0.00 0.01 0.00 72 1011.5
20260503080505 36 117 0.0 3.0 0.00 0.01 0.00 72 1011.4
20260503072506 36 113 0.0 4.0 0.00 0.01 0.00 72 1011.3
20260503072006 36 61 0.0 3.0 0.00 0.01 0.00 72 1011.3
20260503071505 36 123 0.0 3.0 0.00 0.01 0.00 72 1011.3
20260503071004 36 70 0.0 2.0 0.00 0.01 0.00 72 1011.3
20260503070504 36 35 0.0 3.0 0.00 0.01 0.00 73 1011.2
20260503055003 37 132 0.0 3.0 0.00 0.01 0.00 69 1011.3
20260503054513 37 67 1.0 2.0 0.00 0.01 0.00 70 1011.3
20260503054008 37 77 0.0 2.0 0.00 0.01 0.00 71 1011.2
20260503053509 37 76 0.0 2.0 0.00 0.02 0.00 73 1011.3
20260503053012 37 46 0.0 2.0 0.00 0.02 0.00 72 1011.3
20260503052505 37 96 0.0 1.0 0.00 0.02 0.00 73 1011.4
20260503052010 37 121 0.0 9.0 0.00 0.03 0.00 73 1011.3
20260503051512 37 146 1.0 9.0 0.00 0.03 0.00 71 1011.4
20260503051010 37 56 0.0 2.0 0.00 0.03 0.00 75 1011.5
20260503050505 37 34 0.0 2.0 0.00 0.03 0.00 79 1011.5
20260503050008 37 61 0.0 0.0 0.00 0.03 0.00 78 1011.5
20260503045503 37 61 0.0 0.0 0.00 0.03 0.00 78 1011.5
20260503045010 37 61 0.0 1.0 0.00 0.03 0.00 78 1011.5
20260503044522 37 61 0.0 1.0 0.00 0.03 0.00 77 1011.5
20260503044010 38 44 0.0 0.0 0.00 0.03 0.00 77 1011.5
20260503043507 38 44 0.0 0.0 0.00 0.03 0.00 77 1011.5
20260503043012 38 44 0.0 1.0 0.00 0.03 0.00 75 1011.5
20260503042509 38 44 0.0 1.0 0.00 0.03 0.00 76 1011.5
20260503042007 38 44 0.0 1.0 0.00 0.04 0.00 75 1011.5
20260503041510 38 56 0.0 0.0 0.00 0.04 0.00 74 1011.6
20260503041007 39 56 0.0 0.0 0.00 0.05 0.00 71 1011.6
20260503040513 39 56 0.0 2.0 0.00 0.06 0.00 73 1011.6
20260503040015 39 56 0.0 2.0 0.00 0.07 0.00 72 1011.6
20260503035507 39 40 0.0 2.0 0.00 0.07 0.07 73 1011.6
20260503035011 39 40 0.0 2.0 0.00 0.07 0.07 72 1011.7
20260503034513 40 40 0.0 2.0 0.00 0.07 0.07 72 1011.7
20260503034007 40 46 0.0 2.0 0.00 0.07 0.07 71 1011.7
20260503033505 40 57 0.0 2.0 0.00 0.07 0.07 69 1011.7
20260503033014 40 69 0.0 3.0 0.00 0.07 0.07 69 1011.7
20260503032509 40 69 0.0 3.0 0.00 0.07 0.07 67 1011.8
20260503032010 40 34 0.0 3.0 0.00 0.07 0.07 70 1011.9
20260503031517 40 26 0.0 6.0 0.00 0.07 0.07 69 1011.9
20260503031007 40 14 0.0 6.0 0.00 0.07 0.07 68 1011.9
20260503030508 41 26 0.0 6.0 0.00 0.07 0.07 69 1011.9
20260503030016 41 20 0.0 6.0 0.00 0.07 0.07 66 1011.8
20260503025512 41 322 1.0 4.0 0.00 0.07 0.07 67 1011.9
20260503025010 41 75 0.0 4.0 0.00 0.07 0.07 67 1011.9
20260503024520 41 26 0.0 5.0 0.00 0.07 0.07 68 1011.8
20260503024009 41 355 1.0 5.0 0.00 0.07 0.07 68 1011.9
20260503023508 41 360 0.0 3.0 0.00 0.07 0.07 71 1012.0
20260503023023 41 82 0.0 3.0 0.00 0.07 0.07 68 1012.0
20260503022507 41 26 0.0 3.0 0.00 0.07 0.07 69 1012.0
20260503022010 41 31 0.0 3.0 0.00 0.07 0.07 68 1012.0
20260503021519 41 51 1.0 7.0 0.00 0.07 0.07 69 1012.1
20260503021016 41 44 2.0 7.0 0.00 0.07 0.07 69 1012.1
20260503020510 41 348 0.0 5.0 0.00 0.07 0.07 70 1012.0
20260503020028 41 68 1.0 8.0 0.00 0.07 0.07 69 1011.9
20260503015509 41 31 2.0 8.0 0.00 0.07 0.07 69 1011.8
20260503015012 41 88 3.0 8.0 0.00 0.07 0.07 70 1011.8
20260503014520 41 338 1.0 7.0 0.00 0.08 0.07 71 1011.7
20260503014008 41 47 2.0 8.0 0.00 0.08 0.07 73 1011.7
20260503013510 41 50 2.0 8.0 0.00 0.08 0.07 73 1011.7
20260503013018 41 27 3.0 6.0 0.00 0.08 0.07 73 1011.8
20260503012511 41 15 1.0 5.0 0.00 0.08 0.07 73 1011.8
20260503012015 41 322 1.0 5.0 0.00 0.08 0.07 73 1011.7
20260503011516 41 337 1.0 5.0 0.00 0.08 0.07 73 1011.7
20260503011007 41 340 1.0 5.0 0.00 0.08 0.07 72 1011.6
20260503010507 41 18 2.0 5.0 0.00 0.08 0.07 72 1011.6
20260503010017 42 45 1.0 6.0 0.00 0.08 0.07 72 1011.6
20260503005509 42 322 2.0 6.0 0.00 0.08 0.07 73 1011.5
20260503005010 42 30 0.0 6.0 0.00 0.08 0.07 74 1011.5
20260503004523 42 74 1.0 6.0 0.00 0.08 0.07 75 1011.5
20260503004011 42 20 1.0 5.0 0.00 0.08 0.07 75 1011.4
20260503003511 42 46 0.0 4.0 0.00 0.08 0.07 75 1011.3
20260503003031 42 328 1.0 6.0 0.00 0.08 0.07 74 1011.2
20260503002509 42 34 1.0 6.0 0.00 0.08 0.07 73 1011.3
20260503002007 42 327 1.0 6.0 0.00 0.08 0.07 74 1011.2
20260503001526 42 350 1.0 5.0 0.00 0.09 0.07 73 1011.2
20260503001004 43 40 0.0 6.0 0.00 0.09 0.07 73 1011.3
20260503000504 43 16 2.0 6.0 0.00 0.10 0.07 72 1011.2
20260503000015 43 5 2.0 5.0 0.00 0.10 0.07 73 1011.3
20260502235504 43 360 2.0 4.0 0.00 0.10 0.07 72 1011.2
20260502235004 43 57 0.0 6.0 0.00 0.10 0.07 72 1011.2
20260502234506 43 9 1.0 6.0 0.00 0.11 0.07 72 1011.1
20260502234003 43 36 1.0 5.0 0.00 0.11 0.07 72 1011.1
20260502233504 43 11 0.0 5.0 0.00 0.11 0.07 73 1011.1
20260502233006 43 351 1.0 5.0 0.00 0.11 0.07 71 1011.1
20260502232503 43 42 0.0 4.0 0.00 0.11 0.07 71 1011.0
20260502232004 43 66 1.0 5.0 0.00 0.11 0.07 71 1011.0
20260502231507 43 65 0.0 6.0 0.00 0.11 0.07 70 1011.0
20260502231003 44 21 1.0 6.0 0.00 0.11 0.07 71 1010.8
20260502230503 44 136 0.0 5.0 0.00 0.11 0.07 72 1010.8
20260502230009 44 115 0.0 5.0 0.00 0.11 0.07 71 1010.9
20260502225503 44 34 1.0 6.0 0.00 0.11 0.07 70 1010.7
20260502225005 44 52 2.0 6.0 0.00 0.11 0.07 71 1010.8
20260502224507 44 78 0.0 3.0 0.00 0.11 0.07 71 1010.8
20260502224007 44 18 1.0 3.0 0.00 0.11 0.07 69 1010.8
20260502223505 44 31 0.0 2.0 0.00 0.11 0.07 71 1010.8
20260502223022 45 32 0.0 3.0 0.00 0.11 0.07 70 1010.9
20260502222504 45 30 0.0 4.0 0.00 0.11 0.07 70 1010.7
20260502222005 45 71 1.0 4.0 0.00 0.11 0.07 70 1010.8
20260502221504 45 32 0.0 4.0 0.00 0.11 0.07 70 1010.8
20260502221008 45 36 0.0 0.0 0.00 0.11 0.07 71 1010.8
20260502220506 45 69 0.0 5.0 0.00 0.11 0.07 70 1010.7
20260502220006 45 360 0.0 5.0 0.00 0.11 0.07 71 1010.7
20260502215507 45 27 2.0 5.0 0.00 0.11 0.07 72 1010.7
20260502215007 45 86 0.0 5.0 0.00 0.11 0.07 73 1010.8
20260502214509 44 360 0.0 5.0 0.00 0.11 0.07 72 1010.7
20260502214007 44 93 1.0 3.0 0.00 0.11 0.07 73 1010.7
20260502213504 44 88 0.0 4.0 0.00 0.12 0.07 74 1010.6
20260502213009 44 149 1.0 4.0 0.00 0.12 0.07 74 1010.6
20260502212505 44 62 0.0 4.0 0.00 0.12 0.07 74 1010.7
20260502212006 44 56 0.0 4.0 0.00 0.12 0.07 75 1010.7
20260502211508 44 109 0.0 4.0 0.00 0.12 0.07 73 1010.7
20260502211005 44 46 0.0 8.0 0.00 0.12 0.07 74 1010.7
20260502210506 44 32 1.0 8.0 0.00 0.12 0.07 74 1010.7
20260502210007 44 96 1.0 8.0 0.00 0.12 0.07 73 1010.6
20260502205508 44 5 1.0 7.0 0.00 0.12 0.07 72 1010.6
20260502205006 44 84 0.0 4.0 0.00 0.13 0.07 74 1010.6
20260502204507 44 72 0.0 4.0 0.00 0.13 0.07 73 1010.7
20260502204002 44 125 0.0 6.0 0.00 0.13 0.07 74 1010.7
20260502203506 44 343 0.0 6.0 0.00 0.13 0.07 73 1010.6
20260502203012 44 140 0.0 5.0 0.00 0.14 0.07 74 1010.6
20260502202503 44 136 0.0 5.0 0.00 0.14 0.07 73 1010.6
20260502202008 44 180 1.0 5.0 0.00 0.15 0.07 73 1010.6
20260502201506 44 342 1.0 4.0 0.00 0.15 0.07 73 1010.7